Location: Brompton
(51.4000°N, 0.5333°E)
Time: 05:30:48
(UTC+00:00)

USA 215 - Pass Details

Date: 25 September 2021
Orbit: 1093 x 1114 km, 123.0° (Epoch: 14 October)

Event Time Altitude Azimuth Distance (km) Brightness Sun altitude
Exits shadow 19:08:33 14° 128° (SE) 2,633 4.7 -13.1°
Maximum altitude 19:14:14 76° 213° (SSW) 1,135 3.4 -14.0°
Drops below altitude 10° 19:20:49 10° 299° (WNW) 2,972 6.8 -15.0°
Sets 19:23:19 0° 301° (WNW) 3,935 7.8 -15.3°
